When you browse on this site, cookies collect data to enhance your experience and personalize the content and advertising you see.
Visit our Privacy Policy to learn more. By continuing to use the site, you agree to this use of cookies and data.
  • In Spain
  • List of Countries
  • For 7 days
  • Water Temperature
  • Satellite Maps
  • Weather Map
  • Weather Widgets
  • user-avatar
    Login

    Hourly Weather Resht

    Today, 18 January, Friday

    Time Temperature Precipitation Wind Pressure Humidity
    00:00 +5°C° 1.5 mm 4 mps 762 mmHg 86%
    01:00 +5°C° 0.9 mm 4 mps 763 mmHg 86%
    02:00 +5°C° 0.9 mm 3 mps 763 mmHg 87%
    03:00 +5°C° 0.9 mm 3 mps 764 mmHg 87%
    04:00 +5°C° 0.5 mm 3 mps 764 mmHg 86%
    05:00 +5°C° 0.5 mm 3 mps 764 mmHg 86%
    06:00 +5°C° 0.5 mm 3 mps 765 mmHg 85%
    07:00 +5°C° 0.4 mm 3 mps 765 mmHg 84%
    08:00 +5°C° 0.4 mm 3 mps 766 mmHg 83%
    09:00 +5°C° 0.4 mm 3 mps 766 mmHg 82%
    10:00 +5°C° 0.4 mm 3 mps 766 mmHg 81%
    11:00 +7°C° 0.4 mm 3 mps 766 mmHg 80%
    12:00 +7°C° 0.4 mm 3 mps 766 mmHg 79%
    13:00 +7°C° 0.2 mm 2 mps 767 mmHg 78%
    14:00 +7°C° 0.2 mm 2 mps 767 mmHg 77%
    15:00 +7°C° 0.2 mm 2 mps 767 mmHg 77%
    16:00 +7°C° 0.1 mm 2 mps 767 mmHg 79%
    17:00 +7°C° 0.1 mm 1 mps 768 mmHg 81%
    18:00 +7°C° 0.1 mm 1 mps 768 mmHg 83%
    19:00 +7°C° 0.1 mm 1 mps 768 mmHg 84%
    20:00 +6°C° 0.1 mm 1 mps 769 mmHg 84%
    21:00 +5°C° 0.1 mm 0 mps 769 mmHg 84%
    22:00 +6°C° 0 mm 1 mps 769 mmHg 82%
    23:00 +6°C° 0 mm 1 mps 769 mmHg 80%

    Tomorrow, 19 January, Saturday

    Time Temperature Precipitation Wind Pressure Humidity
    00:00 +6°C° 0 mm 1 mps 769 mmHg 77%
    01:00 +6°C° 0 mm 1 mps 769 mmHg 75%
    02:00 +5°C° 0 mm 2 mps 769 mmHg 72%
    03:00 +4°C° 0 mm 2 mps 769 mmHg 69%
    04:00 +4°C° 0 mm 2 mps 769 mmHg 66%
    05:00 +4°C° 0 mm 2 mps 769 mmHg 64%
    06:00 +4°C° 0 mm 2 mps 769 mmHg 61%
    07:00 +5°C° 0 mm 2 mps 769 mmHg 58%
    08:00 +6°C° 0 mm 2 mps 769 mmHg 55%
    09:00 +7°C° 0 mm 2 mps 769 mmHg 52%
    10:00 +9°C° 0 mm 2 mps 768 mmHg 47%
    11:00 +10°C° 0 mm 2 mps 768 mmHg 41%
    12:00 +12°C° 0 mm 1 mps 767 mmHg 36%
    13:00 +13°C° 0 mm 1 mps 767 mmHg 35%
    14:00 +13°C° 0 mm 1 mps 766 mmHg 35%
    15:00 +13°C° 0 mm 1 mps 766 mmHg 35%
    16:00 +12°C° 0 mm 1 mps 766 mmHg 39%
    17:00 +10°C° 0 mm 2 mps 767 mmHg 44%
    18:00 +8°C° 0 mm 2 mps 767 mmHg 48%
    19:00 +8°C° 0 mm 2 mps 767 mmHg 49%
    20:00 +8°C° 0 mm 2 mps 767 mmHg 51%
    21:00 +7°C° 0 mm 2 mps 767 mmHg 52%
    22:00 +7°C° 0 mm 2 mps 767 mmHg 52%
    23:00 +7°C° 0 mm 2 mps 768 mmHg 52%

    Day after tomorrow, 20 January, Sunday

    Time Temperature Precipitation Wind Pressure Humidity
    00:00 +6°C° 0 mm 2 mps 768 mmHg 52%
    01:00 +6°C° 0 mm 2 mps 768 mmHg 51%
    02:00 +6°C° 0 mm 2 mps 768 mmHg 51%
    03:00 +6°C° 0 mm 2 mps 768 mmHg 51%
    04:00 +6°C° 0 mm 2 mps 768 mmHg 51%
    05:00 +6°C° 0 mm 2 mps 768 mmHg 51%
    06:00 +6°C° 0 mm 2 mps 768 mmHg 51%
    07:00 +7°C° 0 mm 2 mps 769 mmHg 50%
    08:00 +8°C° 0 mm 2 mps 769 mmHg 49%
    09:00 +10°C° 0 mm 1 mps 769 mmHg 48%
    10:00 +11°C° 0 mm 1 mps 769 mmHg 43%
    11:00 +13°C° 0 mm 1 mps 768 mmHg 39%
    12:00 +13°C° 0 mm 0 mps 768 mmHg 34%
    13:00 +14°C° 0 mm 1 mps 768 mmHg 35%
    14:00 +14°C° 0 mm 1 mps 767 mmHg 37%
    15:00 +14°C° 0 mm 2 mps 767 mmHg 38%
    16:00 +12°C° 0 mm 1 mps 768 mmHg 43%
    17:00 +11°C° 0 mm 1 mps 768 mmHg 48%
    18:00 +10°C° 0 mm 1 mps 769 mmHg 54%
    19:00 +9°C° 0 mm 1 mps 769 mmHg 54%
    20:00 +9°C° 0 mm 1 mps 769 mmHg 54%
    21:00 +9°C° 0 mm 1 mps 769 mmHg 55%
    22:00 +8°C° 0 mm 1 mps 769 mmHg 54%
    23:00 +8°C° 0 mm 1 mps 769 mmHg 53%

    21 January, Monday

    Time Temperature Precipitation Wind Pressure Humidity
    00:00 +8°C° 0 mm 1 mps 769 mmHg 53%
    01:00 +8°C° 0 mm 1 mps 769 mmHg 52%
    02:00 +7°C° 0 mm 1 mps 769 mmHg 51%
    03:00 +7°C° 0 mm 1 mps 769 mmHg 50%
    04:00 +7°C° 0 mm 1 mps 769 mmHg 49%
    05:00 +7°C° 0 mm 1 mps 769 mmHg 48%
    06:00 +7°C° 0 mm 1 mps 769 mmHg 47%
    07:00 +8°C° 0 mm 1 mps 769 mmHg 45%
    08:00 +9°C° 0 mm 1 mps 769 mmHg 43%
    09:00 +10°C° 0 mm 1 mps 769 mmHg 41%
    10:00 +11°C° 0 mm 1 mps 768 mmHg 39%
    11:00 +12°C° 0 mm 1 mps 768 mmHg 37%
    12:00 +13°C° 0 mm 1 mps 767 mmHg 36%
    13:00 +13°C° 0 mm 2 mps 766 mmHg 39%
    14:00 +13°C° 0 mm 2 mps 766 mmHg 42%
    15:00 +13°C° 0 mm 2 mps 765 mmHg 45%
    16:00 +12°C° 0 mm 2 mps 766 mmHg 51%
    17:00 +11°C° 0 mm 1 mps 766 mmHg 58%
    18:00 +9°C° 0 mm 1 mps 766 mmHg 64%
    19:00 +9°C° 0 mm 1 mps 766 mmHg 62%
    20:00 +9°C° 0 mm 1 mps 766 mmHg 61%
    21:00 +9°C° 0 mm 1 mps 766 mmHg 59%
    22:00 +8°C° 0 mm 1 mps 766 mmHg 56%
    23:00 +8°C° 0 mm 1 mps 765 mmHg 53%

    22 January, Tuesday

    Time Temperature Precipitation Wind Pressure Humidity
    00:00 +8°C° 0 mm 1 mps 765 mmHg 51%
    01:00 +8°C° 0 mm 1 mps 765 mmHg 49%
    02:00 +7°C° 0 mm 1 mps 765 mmHg 48%
    03:00 +7°C° 0 mm 1 mps 765 mmHg 46%
    04:00 +7°C° 0 mm 1 mps 765 mmHg 46%
    05:00 +7°C° 0 mm 1 mps 765 mmHg 46%
    06:00 +7°C° 0 mm 1 mps 765 mmHg 45%
    07:00 +8°C° 0 mm 1 mps 765 mmHg 44%
    08:00 +9°C° 0 mm 1 mps 765 mmHg 42%
    09:00 +10°C° 0 mm 1 mps 765 mmHg 41%
    10:00 +12°C° 0 mm 1 mps 764 mmHg 36%
    11:00 +13°C° 0 mm 1 mps 764 mmHg 32%
    12:00 +14°C° 0 mm 0 mps 763 mmHg 27%
    13:00 +14°C° 0 mm 0 mps 763 mmHg 27%
    14:00 +15°C° 0 mm 1 mps 763 mmHg 27%
    15:00 +15°C° 0 mm 1 mps 763 mmHg 27%
    16:00 +14°C° 0 mm 1 mps 764 mmHg 31%
    17:00 +13°C° 0 mm 1 mps 765 mmHg 36%
    18:00 +11°C° 0 mm 1 mps 766 mmHg 40%
    19:00 +10°C° 0 mm 2 mps 766 mmHg 41%
    20:00 +9°C° 0 mm 2 mps 767 mmHg 41%
    21:00 +8°C° 0 mm 2 mps 767 mmHg 42%
    22:00 +8°C° 0 mm 2 mps 768 mmHg 43%
    23:00 +8°C° 0 mm 2 mps 768 mmHg 44%

    23 January, Wednesday

    Time Temperature Precipitation Wind Pressure Humidity
    00:00 +7°C° 0 mm 2 mps 768 mmHg 46%
    01:00 +8°C° 0 mm 1 mps 768 mmHg 47%
    02:00 +8°C° 0 mm 1 mps 768 mmHg 48%
    03:00 +7°C° 0 mm 1 mps 768 mmHg 49%
    04:00 +7°C° 0 mm 1 mps 768 mmHg 48%
    05:00 +7°C° 0 mm 1 mps 768 mmHg 47%
    06:00 +7°C° 0 mm 1 mps 768 mmHg 46%
    07:00 +8°C° 0 mm 1 mps 768 mmHg 45%
    08:00 +9°C° 0 mm 1 mps 768 mmHg 43%
    09:00 +10°C° 0 mm 1 mps 768 mmHg 41%
    10:00 +11°C° 0 mm 1 mps 768 mmHg 43%
    11:00 +12°C° 0 mm 2 mps 767 mmHg 45%
    12:00 +13°C° 0 mm 2 mps 766 mmHg 47%
    13:00 +11°C° 0 mm 3 mps 766 mmHg 53%
    14:00 +11°C° 0 mm 3 mps 766 mmHg 58%
    15:00 +11°C° 0 mm 3 mps 766 mmHg 63%
    16:00 +10°C° 0 mm 3 mps 766 mmHg 70%
    17:00 +9°C° 0 mm 2 mps 767 mmHg 76%
    18:00 +8°C° 0 mm 2 mps 767 mmHg 83%
    19:00 +9°C° 0 mm 1 mps 767 mmHg 81%
    20:00 +9°C° 0 mm 1 mps 767 mmHg 79%
    21:00 +9°C° 0 mm 1 mps 767 mmHg 76%
    22:00 +8°C° 0 mm 1 mps 767 mmHg 71%
    23:00 +8°C° 0 mm 1 mps 767 mmHg 67%
    Show more